EW3154 Weather Reports


time (UTC)temp
C
wind
direction
speed
KPH
gust
KPH
rain 1hr
cm
rain 24hr
cm
rain mn
cm
humidity
%
barometer
mb
20260503004511 5 138 0.0 0.0 0.00 0.00 0.00 95 1020.1
20260503003009 5 138 0.0 0.0 0.00 0.00 0.00 95 1020.2
20260503001506 5 138 0.0 0.0 0.00 0.00 0.00 94 1020.3
20260503000008 5 138 0.0 0.0 0.00 0.00 0.00 94 1020.4
20260502234505 5 138 0.0 0.0 0.00 0.00 0.00 93 1020.4
20260502233059 5 138 0.0 0.0 0.00 0.00 0.00 93 1020.7
20260502231600 6 138 0.0 0.0 0.00 0.00 0.00 93 1020.8
20260502230057 6 138 0.0 0.0 0.00 0.00 0.00 93 1020.8
20260502224556 6 138 0.0 0.0 0.00 0.00 0.00 92 1020.8
20260502223053 6 138 0.0 0.0 0.00 0.00 0.00 92 1020.9
20260502221552 7 138 0.0 0.0 0.00 0.00 0.00 92 1020.9
20260502220124 7 138 0.0 0.0 0.00 0.00 0.00 91 1020.9
20260502214548 7 138 0.0 0.0 0.00 0.00 0.00 90 1020.8
20260502213047 7 138 0.0 0.0 0.00 0.00 0.00 88 1020.8
20260502211547 8 138 0.0 0.0 0.00 0.00 0.00 89 1020.7
20260502210054 8 138 0.0 0.0 0.00 0.00 0.00 88 1020.7
20260502204558 8 138 0.0 0.0 0.00 0.00 0.00 86 1020.7
20260502203059 9 138 0.0 0.0 0.00 0.00 0.00 86 1020.7
20260502201546 10 138 0.0 0.0 0.00 0.00 0.00 85 1020.6
20260502200045 10 138 0.0 0.0 0.00 0.00 0.00 84 1020.6
20260502194550 10 138 0.0 0.0 0.00 0.00 0.00 83 1020.5
20260502193043 11 138 0.0 0.0 0.00 0.00 0.00 81 1020.5
20260502191544 12 138 0.0 0.0 0.00 0.00 0.00 80 1020.3
20260502190045 12 138 0.0 0.0 0.00 0.00 0.00 78 1020.3
20260502184542 13 138 0.0 0.0 0.00 0.00 0.00 76 1020.1
20260502183050 13 138 0.0 0.0 0.00 0.00 0.00 74 1019.9
20260502181539 14 138 0.0 0.0 0.00 0.00 0.00 73 1019.8
20260502163057 21 92 0.0 0.0 0.00 0.00 0.00 45 1019.7
20260502161534 21 102 0.0 0.0 0.00 0.00 0.00 42 1019.8
20260502151529 22 106 0.0 11.3 0.00 0.00 0.00 42 1020.3
20260502123011 21 112 0.0 12.9 0.00 0.00 0.00 42 1022.1
20260502121509 21 105 0.0 12.9 0.00 0.00 0.00 45 1022.2
20260502114505 21 111 0.0 12.9 0.00 0.00 0.00 46 1022.6
20260502113002 21 78 0.0 12.9 0.00 0.00 0.00 42 1022.8
20260502111600 21 119 0.0 0.0 0.00 0.00 0.00 44 1023.0
20260502110059 20 113 0.0 12.9 0.00 0.00 0.00 50 1023.1
20260502104554 20 360 0.0 6.4 0.00 0.00 0.00 45 1023.4
20260502103052 20 65 0.0 0.0 0.00 0.00 0.00 44 1023.6
20260502101550 20 123 0.0 1.6 0.00 0.00 0.00 47 1023.8
20260502091533 18 65 0.0 0.0 0.00 0.00 0.00 55 1024.7
20260502070058 13 99 0.0 0.0 0.00 0.00 0.00 70 1026.0
20260502064550 12 100 0.0 0.0 0.00 0.00 0.00 71 1026.2
20260502063046 11 98 0.0 0.0 0.00 0.00 0.00 78 1026.2
20260502061541 10 306 0.0 0.0 0.00 0.00 0.00 79 1026.3
20260502060037 8 306 0.0 0.0 0.00 0.00 0.00 86 1026.5
20260502054532 7 306 0.0 0.0 0.00 0.00 0.00 89 1026.6
20260502053028 6 306 0.0 0.0 0.00 0.00 0.00 95 1026.7
20260502051527 4 306 0.0 0.0 0.00 0.00 0.00 97 1026.8
20260502050019 3 306 0.0 0.0 0.00 0.00 0.00 99 1026.8
20260502044516 1 306 0.0 0.0 0.00 0.00 0.00 98 1026.7
20260502043011 0 13 0.0 0.0 0.00 0.00 0.00 97 1026.7
20260502041510 0 13 0.0 0.0 0.00 0.00 0.00 96 1026.7
20260502040009 1 13 0.0 0.0 0.00 0.00 0.00 96 1026.6
20260502034507 1 13 0.0 0.0 0.00 0.00 0.00 97 1026.6
20260502033012 1 13 0.0 0.0 0.00 0.00 0.00 96 1026.6
20260502031505 1 313 0.0 0.0 0.00 0.00 0.00 96 1026.5
20260502030003 1 313 0.0 0.0 0.00 0.00 0.00 96 1026.7
20260502024508 1 313 0.0 0.0 0.00 0.00 0.00 96 1026.6
20260502023002 1 313 0.0 0.0 0.00 0.00 0.00 96 1026.6
20260502021616 1 313 0.0 0.0 0.00 0.00 0.00 96 1026.7
20260502020059 1 313 0.0 0.0 0.00 0.00 0.00 95 1026.7
20260502014601 1 313 0.0 0.0 0.00 0.00 0.00 95 1026.8
20260502013058 1 325 0.0 0.0 0.00 0.00 0.00 96 1026.8
20260502011554 2 325 0.0 0.0 0.00 0.00 0.00 96 1026.9
20260502010059 2 325 0.0 0.0 0.00 0.00 0.00 95 1027.0